Aérodrome :
LOGIN :

S'inscrire | Disclaimer

   EN    FR    IT 

 










Légende :    VFR   VFR Marginal   IFR   IFR Intensif   IFR Très Intensif
Visi : 
Plafond : 
>= 8 km
>= 3000ft
5 à 8 km
1000 à 3000 ft
1500m à 5 km
500 à 1000 ft
800 à 1500m
200 à 500 ft
< 800m
< 200 ft
Symboles :   Orages  Brouillard  Fortes neiges  Fortes précipitations  Vent > 20 kt
SIGMETs :   Divers  Orages  Givrage  Turbulence  Onde Orograph.  Cendres Volcan.






- Altitude de l'aérodrome : 325 ft
- Code IATA : POX


LFPT - Pontoise

DERNIER METAR :
  • 171130Z AUTO 31003KT 260V340 9999 FEW023 07/04 Q1024

METARs EXPIRÉS :
  • 171100Z AUTO 28004KT CAVOK 06/03 Q1024
  • 171030Z AUTO 30004KT 9999 FEW024 04/03 Q1024
  • 171000Z AUTO 34008KT 9999 FEW020 SCT030 BKN041 04/02 Q1023
  • 170930Z AUTO 32008KT 9999 BKN022 BKN028 OVC034 03/02 Q1023
  • 170900Z AUTO 32007KT 9999 FEW013/// SCT025/// BKN031/// ///TCU 03/02 Q1022

TAF N/A
ATIS : +33 1 30 30 52 08



MET'MAP, la Météo Aéronautique d'un coup d'oeil ! - Copyright ORBIFLY Décembre 2007 - Disclaimer

ORBIFLY MET'MAP TEAM :

Programmation & Développement : Alexandra Zaïnal
Sur une idée originale de : Baudouin d'Aumeries
Assistance à la programmation : Marc-Olivier Méhu
Soutien technique & logistique : Manuel Goepfert

Contact : metmap@orbifly.com




SOURCES & CREDITS :

   NOAA